Location: Las Vegas
(36.1750°N, 115.1360°W)
Time: 01:33:00
(UTC-07:00)

Hubble Space Telescope - Visible Passes

Search period start: 25 April 2019 00:00
Search period end: 05 May 2019 00:00
Orbit: 537 x 540 km, 28.5° (Epoch: 24 April)

Date Brightness Start Highest point End Pass type
(mag) Time Alt. Az. Time Alt. Az. Time Alt. Az.
25 Apr 3.1 03:55:08 13° SSE 03:55:08 13° SSE 03:56:25 10° SE visible
26 Apr 3.1 03:45:06 14° SE 03:45:06 14° SE 03:46:16 10° ESE visible
26 Apr 2.1 05:20:47 10° SW 05:24:18 27° S 05:27:48 10° ESE visible
27 Apr 3.2 03:35:03 14° SE 03:35:03 14° SE 03:35:58 10° ESE visible
27 Apr 2.0 05:10:23 11° SW 05:13:43 28° S 05:17:16 10° ESE visible
28 Apr 3.3 03:25:02 13° ESE 03:25:02 13° ESE 03:25:35 10° ESE visible
28 Apr 2.0 05:00:22 14° SW 05:03:09 28° S 05:06:42 10° ESE visible
29 Apr 3.5 03:15:02 11° ESE 03:15:02 11° ESE 03:15:09 10° ESE visible
29 Apr 1.9 04:50:22 17° SW 04:52:34 27° S 04:56:07 10° SE visible
30 Apr 2.0 04:40:26 21° SW 04:42:00 26° S 04:45:29 10° SE visible
01 May 2.0 04:30:34 23° SSW 04:31:25 25° S 04:34:49 10° SE visible
02 May 2.1 04:20:48 23° SSW 04:20:50 23° S 04:24:06 10° SE visible
03 May 2.4 04:11:10 19° S 04:11:10 19° S 04:13:20 10° SE visible
04 May 3.0 04:01:41 13° SSE 04:01:41 13° SSE 04:02:29 10° SSE visible
